RYR363C LEMI-EGHH

Flight info

Callsign RYR363C
Flight time 2h 8m
Altitude 36000
Route ALT N851 MITOS N608 COMPI Y90 USKAR DCT MOPAS DCT GIROM DCT AGN DCT SECHE DCT UVELI DCT CNA DCT MANAK UY110 ORIST Y110 THRED
Aircraft B738/M-SDE2E3FGHIRWXY/LB1

Departure

Time 2026-05-07 07:56
Airport Region of Murcia International Airport (LEMI)

Arrival

Time 2026-05-07 10:04
Airport Bournemouth Airport (EGHH)
Time Latitude Longitude Altitude Speed Heading
2026-05-07 07:37 37.80404 -1.13060 641 ft 0 kts 315°
2026-05-07 07:47 37.80389 -1.13042 640 ft 4 kts 315°
2026-05-07 07:47 37.80372 -1.13020 641 ft 4 kts 304°
2026-05-07 07:48 37.80362 -1.12990 641 ft 4 kts 268°
2026-05-07 07:48 37.80370 -1.12961 644 ft 4 kts 228°
2026-05-07 07:48 37.80390 -1.12938 642 ft 4 kts 214°
2026-05-07 07:48 37.80407 -1.12923 642 ft 0 kts 221°
2026-05-07 07:51 37.80406 -1.12924 642 ft 1 kts 221°
2026-05-07 07:51 37.80398 -1.12934 643 ft 3 kts 223°
2026-05-07 07:51 37.80376 -1.12961 644 ft 6 kts 224°
2026-05-07 07:52 37.80340 -1.13006 641 ft 9 kts 226°
2026-05-07 07:52 37.80293 -1.13068 640 ft 11 kts 225°
2026-05-07 07:52 37.80234 -1.13143 640 ft 13 kts 218°
2026-05-07 07:52 37.80154 -1.13124 640 ft 14 kts 136°
2026-05-07 07:53 37.80070 -1.13104 641 ft 14 kts 223°
2026-05-07 07:53 37.79997 -1.13197 640 ft 16 kts 226°
2026-05-07 07:53 37.79916 -1.13303 640 ft 17 kts 225°
2026-05-07 07:53 37.79828 -1.13415 640 ft 19 kts 225°
2026-05-07 07:54 37.79733 -1.13536 640 ft 19 kts 225°
2026-05-07 07:54 37.79640 -1.13656 640 ft 19 kts 225°
2026-05-07 07:54 37.79549 -1.13772 640 ft 18 kts 218°
2026-05-07 07:54 37.79446 -1.13712 639 ft 18 kts 135°
2026-05-07 07:55 37.79430 -1.13617 639 ft 10 kts 53°
2026-05-07 07:55 37.79495 -1.13532 640 ft 28 kts 45°
2026-05-07 07:55 37.79798 -1.13141 640 ft 96 kts 45°
2026-05-07 07:55 37.80410 -1.12358 643 ft 152 kts 46°
2026-05-07 07:56 37.81200 -1.11349 1151 ft 164 kts 46°
2026-05-07 07:56 37.82015 -1.10347 2034 ft 158 kts 45°
2026-05-07 07:56 37.82830 -1.09372 2712 ft 167 kts 45°
2026-05-07 07:56 37.83757 -1.08264 2966 ft 198 kts 45°
2026-05-07 07:57 37.84820 -1.06995 3166 ft 222 kts 45°
2026-05-07 07:57 37.85990 -1.05603 3479 ft 243 kts 45°
2026-05-07 07:57 37.87269 -1.04082 4000 ft 256 kts 45°
2026-05-07 07:57 37.88577 -1.02531 4824 ft 259 kts 45°
2026-05-07 07:58 37.89907 -1.00954 5586 ft 264 kts 45°
2026-05-07 07:58 37.91263 -0.99344 6294 ft 271 kts 45°
2026-05-07 07:58 37.92652 -0.97694 7010 ft 275 kts 45°
2026-05-07 07:58 37.93580 -0.96593 7511 ft 277 kts 45°
2026-05-07 07:59 37.95466 -0.94352 8467 ft 283 kts 44°
2026-05-07 07:59 37.96439 -0.93195 8945 ft 286 kts 44°
2026-05-07 07:59 37.97899 -0.91457 9666 ft 290 kts 44°
2026-05-07 07:59 37.99383 -0.89691 10278 ft 298 kts 44°
2026-05-07 08:00 38.00953 -0.87820 10458 ft 321 kts 44°
2026-05-07 08:00 38.02633 -0.85817 10754 ft 338 kts 44°
2026-05-07 08:00 38.04369 -0.83747 11365 ft 345 kts 44°
2026-05-07 08:00 38.06120 -0.81657 12119 ft 347 kts 44°
2026-05-07 08:01 38.07886 -0.79549 12872 ft 350 kts 44°
2026-05-07 08:01 38.09671 -0.77415 13610 ft 354 kts 44°
2026-05-07 08:01 38.11475 -0.75252 14206 ft 361 kts 45°
2026-05-07 08:01 38.13328 -0.73035 14707 ft 370 kts 44°
2026-05-07 08:02 38.15225 -0.70777 15351 ft 375 kts 43°
2026-05-07 08:02 38.17134 -0.68510 16049 ft 379 kts 43°
2026-05-07 08:02 38.19076 -0.66204 16635 ft 385 kts 43°
2026-05-07 08:02 38.21044 -0.63864 17285 ft 390 kts 43°
2026-05-07 08:03 38.23039 -0.61487 17882 ft 396 kts 43°
2026-05-07 08:03 38.25064 -0.59070 18423 ft 403 kts 43°
2026-05-07 08:03 38.26961 -0.56419 18905 ft 409 kts 58°
2026-05-07 08:03 38.28158 -0.53129 19443 ft 411 kts 71°
2026-05-07 08:04 38.29195 -0.49716 19982 ft 416 kts 71°
2026-05-07 08:04 38.30260 -0.46260 20478 ft 422 kts 71°
2026-05-07 08:04 38.31355 -0.42767 20988 ft 427 kts 71°
2026-05-07 08:04 38.32473 -0.39243 21507 ft 432 kts 71°
2026-05-07 08:05 38.33612 -0.35678 22006 ft 437 kts 71°
2026-05-07 08:05 38.34763 -0.32072 22503 ft 441 kts 71°
2026-05-07 08:05 38.35923 -0.28428 22978 ft 446 kts 71°
2026-05-07 08:05 38.37116 -0.24758 23445 ft 451 kts 71°
2026-05-07 08:06 38.38353 -0.21058 23863 ft 456 kts 70°
2026-05-07 08:06 38.39607 -0.17333 24305 ft 458 kts 70°
2026-05-07 08:06 38.40862 -0.13582 24744 ft 461 kts 71°
2026-05-07 08:06 38.42117 -0.09814 25153 ft 464 kts 70°
2026-05-07 08:07 38.43796 -0.06253 25492 ft 475 kts 50°
2026-05-07 08:07 38.46269 -0.03544 25908 ft 478 kts 30°
2026-05-07 08:07 38.49273 -0.01776 26334 ft 476 kts 14°
2026-05-07 08:07 38.52513 -0.01119 26718 ft 470 kts 357°
2026-05-07 08:08 38.55781 -0.01088 27163 ft 470 kts 355°
2026-05-07 08:08 38.59062 -0.01128 27515 ft 474 kts 354°
2026-05-07 08:08 38.62373 -0.01179 27849 ft 477 kts 354°
2026-05-07 08:08 38.65709 -0.01214 28246 ft 480 kts 354°
2026-05-07 08:09 38.69058 -0.01225 28640 ft 482 kts 355°
2026-05-07 08:09 38.72413 -0.01218 29063 ft 483 kts 355°
2026-05-07 08:09 38.75789 -0.01199 29402 ft 486 kts 355°
2026-05-07 08:09 38.79184 -0.01172 29703 ft 490 kts 356°
2026-05-07 08:10 38.82602 -0.01143 30002 ft 493 kts 356°
2026-05-07 08:10 38.86034 -0.01115 30327 ft 494 kts 355°
2026-05-07 08:10 38.89468 -0.01088 30770 ft 492 kts 356°
2026-05-07 08:10 38.92869 -0.01063 31363 ft 485 kts 355°
2026-05-07 08:11 38.96234 -0.01039 31861 ft 482 kts 355°
2026-05-07 08:11 38.99586 -0.01019 32177 ft 483 kts 355°
2026-05-07 08:11 39.02955 -0.01000 32459 ft 485 kts 355°
2026-05-07 08:11 39.06328 -0.00980 32831 ft 484 kts 355°
2026-05-07 08:12 39.09690 -0.00958 33248 ft 482 kts 355°
2026-05-07 08:12 39.13031 -0.00936 33692 ft 480 kts 355°
2026-05-07 08:12 39.16320 -0.00914 34076 ft 478 kts 355°
2026-05-07 08:12 39.19680 -0.00893 34380 ft 477 kts 355°
2026-05-07 08:13 39.22956 -0.00873 34637 ft 477 kts 355°
2026-05-07 08:13 39.26277 -0.00854 34905 ft 477 kts 355°
2026-05-07 08:13 39.29581 -0.00833 35220 ft 475 kts 355°
2026-05-07 08:13 39.32879 -0.00804 35576 ft 473 kts 356°
2026-05-07 08:14 39.36169 -0.00442 35906 ft 477 kts
2026-05-07 08:14 39.42666 0.01771 35980 ft 487 kts 13°
2026-05-07 08:15 39.49138 0.04311 35973 ft 484 kts 12°
2026-05-07 08:15 39.55591 0.06780 35978 ft 479 kts 12°
2026-05-07 08:16 39.61951 0.09148 35992 ft 478 kts 12°
2026-05-07 08:16 39.68344 0.11515 35985 ft 478 kts 12°
2026-05-07 08:17 39.74738 0.13889 35983 ft 478 kts 12°
2026-05-07 08:17 39.81124 0.16272 35999 ft 477 kts 12°
2026-05-07 08:18 39.87509 0.18659 35993 ft 477 kts 12°
2026-05-07 08:18 39.93887 0.21046 35983 ft 477 kts 12°
2026-05-07 08:19 40.00270 0.23440 35988 ft 477 kts 12°
2026-05-07 08:19 40.06650 0.25837 35999 ft 477 kts 12°
2026-05-07 08:20 40.13033 0.28236 36013 ft 477 kts 12°
2026-05-07 08:20 40.19415 0.30640 36012 ft 477 kts 12°
2026-05-07 08:21 40.25790 0.33044 36028 ft 477 kts 13°
2026-05-07 08:21 40.32172 0.35456 36009 ft 477 kts 13°
2026-05-07 08:22 40.38541 0.37876 35994 ft 477 kts 13°
2026-05-07 08:22 40.44908 0.40306 35995 ft 476 kts 13°
2026-05-07 08:23 40.51256 0.42732 36017 ft 475 kts 13°
2026-05-07 08:23 40.57607 0.45161 36005 ft 475 kts 13°
2026-05-07 08:24 40.63947 0.47590 35999 ft 474 kts 13°
2026-05-07 08:24 40.70277 0.50019 35998 ft 474 kts 13°
2026-05-07 08:25 40.76600 0.52452 36001 ft 473 kts 13°
2026-05-07 08:25 40.82907 0.54884 36008 ft 473 kts 13°
2026-05-07 08:26 40.92382 0.58544 36021 ft 473 kts 13°
2026-05-07 08:26 40.98665 0.60977 35997 ft 474 kts 13°
2026-05-07 08:27 41.05027 0.63446 36014 ft 473 kts 13°
2026-05-07 08:27 41.11289 0.65880 36006 ft 472 kts 13°
2026-05-07 08:28 41.17596 0.68337 36007 ft 472 kts 13°
2026-05-07 08:28 41.23897 0.70794 36003 ft 472 kts 13°
2026-05-07 08:29 41.30192 0.73252 36008 ft 471 kts 13°
2026-05-07 08:29 41.36485 0.75713 36016 ft 471 kts 13°
2026-05-07 08:30 41.42769 0.78176 36001 ft 471 kts 13°
2026-05-07 08:30 41.49047 0.80641 36007 ft 470 kts 13°
2026-05-07 08:31 41.55322 0.83111 36009 ft 470 kts 13°
2026-05-07 08:31 41.61596 0.85584 36015 ft 470 kts 13°
2026-05-07 08:32 41.67866 0.88061 36008 ft 470 kts 13°
2026-05-07 08:32 41.74131 0.90542 36009 ft 470 kts 13°
2026-05-07 08:33 41.80394 0.93026 36017 ft 470 kts 13°
2026-05-07 08:33 41.86664 0.95518 35999 ft 470 kts 13°
2026-05-07 08:34 41.92927 0.98012 35995 ft 469 kts 13°
2026-05-07 08:34 41.99182 1.00509 36001 ft 469 kts 13°
2026-05-07 08:35 42.05433 1.03007 35999 ft 468 kts 13°
2026-05-07 08:35 42.11673 1.05487 35997 ft 467 kts 11°
2026-05-07 08:36 42.18043 1.06374 35996 ft 456 kts 352°
2026-05-07 08:36 42.24347 1.05618 36012 ft 454 kts 350°
2026-05-07 08:37 42.30644 1.04833 36013 ft 454 kts 351°
2026-05-07 08:37 42.36940 1.04124 36005 ft 454 kts 351°
2026-05-07 08:38 42.43239 1.03433 36009 ft 454 kts 351°
2026-05-07 08:38 42.49519 1.02751 36010 ft 453 kts 351°
2026-05-07 08:39 42.55796 1.02074 35994 ft 452 kts 351°
2026-05-07 08:39 42.62064 1.01393 36004 ft 452 kts 351°
2026-05-07 08:40 42.68285 1.00713 35993 ft 451 kts 351°
2026-05-07 08:40 42.74546 1.00027 36008 ft 451 kts 351°
2026-05-07 08:41 42.80809 0.99342 35996 ft 451 kts 351°
2026-05-07 08:41 42.87067 0.98660 35999 ft 452 kts 351°
2026-05-07 08:42 42.93331 0.97975 36004 ft 451 kts 351°
2026-05-07 08:42 42.99588 0.97287 36010 ft 451 kts 351°
2026-05-07 08:43 43.05845 0.96596 36014 ft 451 kts 351°
2026-05-07 08:43 43.12105 0.95905 36012 ft 451 kts 351°
2026-05-07 08:44 43.18351 0.95211 36012 ft 451 kts 351°
2026-05-07 08:44 43.24598 0.94516 36031 ft 450 kts 351°
2026-05-07 08:45 43.30849 0.93820 36022 ft 450 kts 351°
2026-05-07 08:45 43.36035 0.93240 36023 ft 450 kts 351°
2026-05-07 08:46 43.42275 0.92543 36023 ft 450 kts 351°
2026-05-07 08:46 43.48512 0.91847 36029 ft 449 kts 351°
2026-05-07 08:47 43.54739 0.91150 36023 ft 449 kts 351°
2026-05-07 08:47 43.60967 0.90450 36023 ft 449 kts 351°
2026-05-07 08:48 43.67181 0.89750 36025 ft 448 kts 351°
2026-05-07 08:48 43.73396 0.89047 36022 ft 448 kts 351°
2026-05-07 08:49 43.79599 0.88348 36014 ft 447 kts 351°
2026-05-07 08:49 43.85801 0.87640 36027 ft 446 kts 350°
2026-05-07 08:50 43.91724 0.85599 36011 ft 435 kts 331°
2026-05-07 08:50 43.97181 0.82046 36017 ft 433 kts 329°
2026-05-07 08:51 44.02620 0.78437 36029 ft 433 kts 330°
2026-05-07 08:51 44.08042 0.74894 36023 ft 434 kts 330°
2026-05-07 08:52 44.13517 0.71342 36015 ft 434 kts 330°
2026-05-07 08:52 44.18985 0.67789 36022 ft 434 kts 330°
2026-05-07 08:53 44.24455 0.64225 36025 ft 434 kts 330°
2026-05-07 08:53 44.29931 0.60656 36016 ft 435 kts 330°
2026-05-07 08:54 44.35407 0.57076 36022 ft 435 kts 330°
2026-05-07 08:54 44.40889 0.53483 36021 ft 435 kts 330°
2026-05-07 08:55 44.46366 0.49883 36030 ft 435 kts 330°
2026-05-07 08:55 44.51838 0.46259 36025 ft 435 kts 330°
2026-05-07 08:56 44.57303 0.42627 36029 ft 435 kts 330°
2026-05-07 08:56 44.62763 0.38987 36047 ft 434 kts 330°
2026-05-07 08:57 44.68225 0.35338 36040 ft 435 kts 330°
2026-05-07 08:57 44.73685 0.31686 36041 ft 434 kts 330°
2026-05-07 08:58 44.79138 0.28033 36045 ft 434 kts 330°
2026-05-07 08:58 44.84593 0.24372 36037 ft 434 kts 330°
2026-05-07 08:59 44.90048 0.20702 36036 ft 434 kts 330°
2026-05-07 08:59 44.95497 0.17024 36028 ft 434 kts 330°
2026-05-07 09:00 45.00912 0.13363 36036 ft 434 kts 330°
2026-05-07 09:00 45.06395 0.09651 36026 ft 435 kts 330°
2026-05-07 09:01 45.11850 0.05950 36023 ft 435 kts 330°
2026-05-07 09:01 45.17271 0.02268 36018 ft 435 kts 330°
2026-05-07 09:02 45.22724 -0.01442 36030 ft 435 kts 330°
2026-05-07 09:02 45.28180 -0.05162 36023 ft 435 kts 330°
2026-05-07 09:03 45.33636 -0.08894 36020 ft 435 kts 330°
2026-05-07 09:03 45.39093 -0.12637 36031 ft 435 kts 330°
2026-05-07 09:04 45.44550 -0.16386 36022 ft 436 kts 330°
2026-05-07 09:04 45.50008 -0.20143 36021 ft 436 kts 330°
2026-05-07 09:05 45.55466 -0.23908 36022 ft 436 kts 330°
2026-05-07 09:05 45.60927 -0.27684 36029 ft 436 kts 331°
2026-05-07 09:06 45.66330 -0.31571 36015 ft 433 kts 324°
2026-05-07 09:06 45.71104 -0.36739 36019 ft 430 kts 318°
2026-05-07 09:07 45.75752 -0.42108 36025 ft 429 kts 318°
2026-05-07 09:07 45.80422 -0.47456 36023 ft 430 kts 318°
2026-05-07 09:08 45.85102 -0.52775 36022 ft 430 kts 319°
2026-05-07 09:08 45.89787 -0.58094 36019 ft 429 kts 319°
2026-05-07 09:09 45.94472 -0.63425 36021 ft 429 kts 319°
2026-05-07 09:09 45.99149 -0.68760 36028 ft 429 kts 319°
2026-05-07 09:10 46.03795 -0.74073 36016 ft 429 kts 319°
2026-05-07 09:10 46.08470 -0.79432 36020 ft 429 kts 319°
2026-05-07 09:11 46.13140 -0.84796 36017 ft 429 kts 319°
2026-05-07 09:11 46.17811 -0.90173 36033 ft 430 kts 319°
2026-05-07 09:12 46.22482 -0.95560 36025 ft 430 kts 319°
2026-05-07 09:12 46.27161 -1.00961 36019 ft 430 kts 319°
2026-05-07 09:13 46.31838 -1.06369 36022 ft 431 kts 319°
2026-05-07 09:13 46.36518 -1.11796 36025 ft 431 kts 319°
2026-05-07 09:14 46.41190 -1.17227 36020 ft 431 kts 319°
2026-05-07 09:14 46.45871 -1.22679 36026 ft 431 kts 319°
2026-05-07 09:15 46.50545 -1.28138 36022 ft 432 kts 319°
2026-05-07 09:15 46.55221 -1.33609 36026 ft 432 kts 319°
2026-05-07 09:16 46.59948 -1.39027 36018 ft 434 kts 324°
2026-05-07 09:16 46.65314 -1.43088 36021 ft 436 kts 332°
2026-05-07 09:17 46.70775 -1.46815 36023 ft 436 kts 332°
2026-05-07 09:17 46.76277 -1.50670 36021 ft 436 kts 332°
2026-05-07 09:18 46.81694 -1.54520 36020 ft 436 kts 332°
2026-05-07 09:18 46.87283 -1.57977 36015 ft 439 kts 343°
2026-05-07 09:19 46.93352 -1.59140 36029 ft 442 kts 354°
2026-05-07 09:19 46.99492 -1.59640 36019 ft 442 kts 354°
2026-05-07 09:20 47.05632 -1.60214 36018 ft 442 kts 354°
2026-05-07 09:20 47.11765 -1.60849 36020 ft 442 kts 354°
2026-05-07 09:21 47.17899 -1.61506 36032 ft 441 kts 353°
2026-05-07 09:21 47.24018 -1.62336 36016 ft 441 kts 353°
2026-05-07 09:22 47.30133 -1.63185 36026 ft 441 kts 353°
2026-05-07 09:22 47.36243 -1.64012 36025 ft 441 kts 353°
2026-05-07 09:23 47.42352 -1.64877 36025 ft 441 kts 353°
2026-05-07 09:23 47.48452 -1.65754 36023 ft 440 kts 353°
2026-05-07 09:24 47.54544 -1.66628 36037 ft 440 kts 353°
2026-05-07 09:24 47.60637 -1.67503 36048 ft 440 kts 353°
2026-05-07 09:25 47.66731 -1.68377 36034 ft 440 kts 353°
2026-05-07 09:25 47.72822 -1.69254 36035 ft 440 kts 353°
2026-05-07 09:26 47.78911 -1.70133 36035 ft 439 kts 353°
2026-05-07 09:26 47.84996 -1.71013 36045 ft 440 kts 353°
2026-05-07 09:27 47.91087 -1.71897 36042 ft 439 kts 353°
2026-05-07 09:28 48.00205 -1.73223 36054 ft 439 kts 353°
2026-05-07 09:28 48.06287 -1.74109 36045 ft 439 kts 353°
2026-05-07 09:29 48.12360 -1.74428 36051 ft 440 kts 358°
2026-05-07 09:29 48.18515 -1.74418 36052 ft 440 kts 358°
2026-05-07 09:30 48.24595 -1.74424 36054 ft 440 kts 358°
2026-05-07 09:30 48.30710 -1.74477 36047 ft 440 kts 358°
2026-05-07 09:31 48.36827 -1.74549 36050 ft 438 kts 358°
2026-05-07 09:31 48.39869 -1.74586 35791 ft 436 kts 358°
2026-05-07 09:31 48.42877 -1.74621 35527 ft 429 kts 358°
2026-05-07 09:31 48.45842 -1.74656 35131 ft 425 kts 358°
2026-05-07 09:32 48.48789 -1.74691 34759 ft 422 kts 358°
2026-05-07 09:32 48.51717 -1.74727 34396 ft 419 kts 358°
2026-05-07 09:32 48.54619 -1.74761 34020 ft 416 kts 358°
2026-05-07 09:32 48.57500 -1.74796 33593 ft 413 kts 358°
2026-05-07 09:33 48.60368 -1.74830 33194 ft 410 kts 358°
2026-05-07 09:33 48.63202 -1.74864 32828 ft 406 kts 358°
2026-05-07 09:33 48.66018 -1.74898 32461 ft 403 kts 358°
2026-05-07 09:33 48.68810 -1.74931 32095 ft 400 kts 358°
2026-05-07 09:34 48.71578 -1.74964 31740 ft 397 kts 358°
2026-05-07 09:34 48.74331 -1.74998 31386 ft 394 kts 358°
2026-05-07 09:34 48.76141 -1.75020 31154 ft 392 kts 358°
2026-05-07 09:34 48.78857 -1.75052 30808 ft 389 kts 358°
2026-05-07 09:35 48.81559 -1.75085 30467 ft 387 kts 358°
2026-05-07 09:35 48.84243 -1.75118 30121 ft 385 kts 358°
2026-05-07 09:35 48.86909 -1.75150 29725 ft 382 kts 358°
2026-05-07 09:35 48.89559 -1.75182 29363 ft 378 kts 358°
2026-05-07 09:36 48.92175 -1.75198 29025 ft 374 kts 359°
2026-05-07 09:36 48.94766 -1.75130 28699 ft 370 kts 360°
2026-05-07 09:36 48.97328 -1.75021 28348 ft 367 kts
2026-05-07 09:36 48.99867 -1.74895 27992 ft 364 kts
2026-05-07 09:37 49.02392 -1.74776 27639 ft 361 kts
2026-05-07 09:37 49.04896 -1.74667 27297 ft 359 kts
2026-05-07 09:37 49.07384 -1.74566 26964 ft 356 kts 360°
2026-05-07 09:37 49.09851 -1.74470 26622 ft 354 kts 360°
2026-05-07 09:38 49.12308 -1.74377 26285 ft 352 kts
2026-05-07 09:38 49.14746 -1.74285 25951 ft 350 kts
2026-05-07 09:38 49.17170 -1.74194 25618 ft 348 kts
2026-05-07 09:38 49.19584 -1.74103 25285 ft 346 kts
2026-05-07 09:39 49.21981 -1.74013 24956 ft 344 kts
2026-05-07 09:39 49.24371 -1.73923 24629 ft 343 kts
2026-05-07 09:39 49.26751 -1.73834 24300 ft 341 kts
2026-05-07 09:39 49.29119 -1.73744 23974 ft 340 kts
2026-05-07 09:40 49.31481 -1.73655 23652 ft 339 kts 360°
2026-05-07 09:40 49.33836 -1.73567 23262 ft 338 kts
2026-05-07 09:40 49.36180 -1.73478 22902 ft 336 kts
2026-05-07 09:40 49.38514 -1.73390 22561 ft 334 kts
2026-05-07 09:41 49.40833 -1.73302 22235 ft 332 kts
2026-05-07 09:41 49.43137 -1.73216 21904 ft 330 kts 360°
2026-05-07 09:41 49.45426 -1.73129 21582 ft 328 kts 360°
2026-05-07 09:41 49.47701 -1.73048 21266 ft 326 kts 360°
2026-05-07 09:42 49.49961 -1.72970 20947 ft 324 kts 359°
2026-05-07 09:42 49.52214 -1.72888 20642 ft 323 kts 359°
2026-05-07 09:42 49.54453 -1.72803 20327 ft 321 kts 360°
2026-05-07 09:42 49.56684 -1.72716 20014 ft 320 kts 359°
2026-05-07 09:43 49.58903 -1.72633 19701 ft 319 kts 359°
2026-05-07 09:43 49.61104 -1.72865 19386 ft 316 kts 349°
2026-05-07 09:43 49.63257 -1.73476 19084 ft 314 kts 346°
2026-05-07 09:43 49.65397 -1.74144 18777 ft 313 kts 346°
2026-05-07 09:44 49.67529 -1.74813 18461 ft 312 kts 346°
2026-05-07 09:44 49.69659 -1.75471 18136 ft 311 kts 347°
2026-05-07 09:44 49.71780 -1.76116 17794 ft 310 kts 347°
2026-05-07 09:44 49.73896 -1.76752 17480 ft 309 kts 347°
2026-05-07 09:45 49.76002 -1.77379 17162 ft 307 kts 347°
2026-05-07 09:45 49.78072 -1.77994 16836 ft 306 kts 347°
2026-05-07 09:45 49.80158 -1.78612 16537 ft 304 kts 347°
2026-05-07 09:45 49.82234 -1.79226 16241 ft 303 kts 347°
2026-05-07 09:46 49.84324 -1.79845 15940 ft 301 kts 348°
2026-05-07 09:46 49.86378 -1.80453 15644 ft 300 kts 347°
2026-05-07 09:46 49.88423 -1.81059 15354 ft 299 kts 348°
2026-05-07 09:46 49.90435 -1.81656 15059 ft 298 kts 347°
2026-05-07 09:47 49.92465 -1.82258 14758 ft 297 kts 348°
2026-05-07 09:47 49.94514 -1.82867 14461 ft 296 kts 347°
2026-05-07 09:47 49.96535 -1.83468 14174 ft 295 kts 348°
2026-05-07 09:47 49.98526 -1.84060 13872 ft 295 kts 348°
2026-05-07 09:48 50.00579 -1.84520 13525 ft 295 kts 358°
2026-05-07 09:48 50.02627 -1.84344 13221 ft 294 kts
2026-05-07 09:48 50.04660 -1.83989 12907 ft 293 kts
2026-05-07 09:48 50.06657 -1.83644 12608 ft 292 kts
2026-05-07 09:49 50.08694 -1.83329 12308 ft 290 kts
2026-05-07 09:49 50.10675 -1.83046 12017 ft 289 kts
2026-05-07 09:49 50.12677 -1.82768 11731 ft 288 kts
2026-05-07 09:49 50.14659 -1.82404 11439 ft 287 kts 11°
2026-05-07 09:50 50.16586 -1.81634 11167 ft 285 kts 15°
2026-05-07 09:50 50.18486 -1.80741 10885 ft 284 kts 17°
2026-05-07 09:50 50.20372 -1.79839 10596 ft 283 kts 17°
2026-05-07 09:50 50.22261 -1.78946 10312 ft 283 kts 16°
2026-05-07 09:51 50.24131 -1.78076 10146 ft 277 kts 16°
2026-05-07 09:51 50.25969 -1.77231 9908 ft 275 kts 16°
2026-05-07 09:51 50.27799 -1.76397 9622 ft 274 kts 15°
2026-05-07 09:51 50.29625 -1.75569 9334 ft 272 kts 15°
2026-05-07 09:52 50.31442 -1.74746 9059 ft 271 kts 15°
2026-05-07 09:52 50.33250 -1.73930 8785 ft 270 kts 15°
2026-05-07 09:52 50.35047 -1.73118 8517 ft 268 kts 15°
2026-05-07 09:52 50.36831 -1.72313 8254 ft 266 kts 15°
2026-05-07 09:53 50.38609 -1.71510 7984 ft 265 kts 14°
2026-05-07 09:53 50.40374 -1.70712 7723 ft 264 kts 15°
2026-05-07 09:53 50.42128 -1.69920 7553 ft 259 kts 15°
2026-05-07 09:53 50.43857 -1.69138 7435 ft 259 kts 14°
2026-05-07 09:54 50.45605 -1.68348 7321 ft 264 kts 14°
2026-05-07 09:54 50.47386 -1.67542 7205 ft 268 kts 14°
2026-05-07 09:54 50.49178 -1.66730 7080 ft 269 kts 14°
2026-05-07 09:54 50.50959 -1.65806 6954 ft 271 kts 21°
2026-05-07 09:55 50.52683 -1.64617 6830 ft 270 kts 24°
2026-05-07 09:55 50.54380 -1.63391 6700 ft 267 kts 23°
2026-05-07 09:55 50.56051 -1.62189 6561 ft 261 kts 22°
2026-05-07 09:55 50.57684 -1.61026 6426 ft 254 kts 23°
2026-05-07 09:56 50.59278 -1.59901 6286 ft 247 kts 22°
2026-05-07 09:56 50.60810 -1.58826 6127 ft 237 kts 22°
2026-05-07 09:56 50.62303 -1.57784 5938 ft 234 kts 23°
2026-05-07 09:56 50.63783 -1.56752 5735 ft 232 kts 23°
2026-05-07 09:57 50.65252 -1.55725 5523 ft 230 kts 22°
2026-05-07 09:57 50.66710 -1.54708 5321 ft 229 kts 22°
2026-05-07 09:57 50.68228 -1.54088 5099 ft 225 kts
2026-05-07 09:57 50.69781 -1.54049 4929 ft 220 kts
2026-05-07 09:58 50.71288 -1.54001 4737 ft 214 kts
2026-05-07 09:58 50.72764 -1.53954 4510 ft 211 kts
2026-05-07 09:58 50.74226 -1.53913 4299 ft 210 kts
2026-05-07 09:58 50.75688 -1.53878 4103 ft 211 kts
2026-05-07 09:59 50.77161 -1.53845 4027 ft 212 kts
2026-05-07 09:59 50.78633 -1.53815 3928 ft 213 kts
2026-05-07 09:59 50.80121 -1.53788 3709 ft 211 kts 359°
2026-05-07 09:59 50.81510 -1.54302 3458 ft 205 kts 325°
2026-05-07 10:00 50.82289 -1.56065 3233 ft 196 kts 279°
2026-05-07 10:00 50.82169 -1.58118 3042 ft 187 kts 257°
2026-05-07 10:00 50.81959 -1.60096 2975 ft 179 kts 259°
2026-05-07 10:00 50.81704 -1.62061 2741 ft 182 kts 255°
2026-05-07 10:01 50.81395 -1.63982 2498 ft 179 kts 253°
2026-05-07 10:01 50.81079 -1.65866 2264 ft 175 kts 253°
2026-05-07 10:01 50.80776 -1.67673 2040 ft 166 kts 252°
2026-05-07 10:01 50.80486 -1.69401 1821 ft 158 kts 253°
2026-05-07 10:02 50.80210 -1.71042 1585 ft 153 kts 253°
2026-05-07 10:02 50.79942 -1.72651 1388 ft 151 kts 253°
2026-05-07 10:02 50.79672 -1.74265 1180 ft 153 kts 251°
2026-05-07 10:02 50.79398 -1.75885 997 ft 153 kts 253°
2026-05-07 10:03 50.79131 -1.77507 794 ft 152 kts 252°
2026-05-07 10:03 50.78865 -1.79114 573 ft 151 kts 250°
2026-05-07 10:03 50.78588 -1.80710 369 ft 150 kts 253°
2026-05-07 10:03 50.78334 -1.82299 132 ft 150 kts 251°
2026-05-07 10:04 50.78072 -1.83851 44 ft 132 kts 256°
2026-05-07 10:04 50.77898 -1.84917 41 ft 62 kts 256°
2026-05-07 10:04 50.77831 -1.85064 42 ft 13 kts 136°
2026-05-07 10:04 50.77789 -1.84940 40 ft 13 kts 119°
2026-05-07 10:05 50.77752 -1.84837 42 ft 0 kts 117°
2026-05-07 10:06 50.77745 -1.84813 41 ft 5 kts 116°
2026-05-07 10:06 50.77726 -1.84727 42 ft 11 kts 104°
2026-05-07 10:07 50.77708 -1.84582 41 ft 16 kts 103°
2026-05-07 10:07 50.77681 -1.84394 39 ft 19 kts 105°
2026-05-07 10:07 50.77637 -1.84194 41 ft 19 kts 108°
2026-05-07 10:07 50.77605 -1.83994 44 ft 18 kts 103°
2026-05-07 10:08 50.77580 -1.83800 41 ft 18 kts 97°
2026-05-07 10:08 50.77577 -1.83610 45 ft 17 kts 89°
2026-05-07 10:08 50.77642 -1.83484 45 ft 16 kts 10°
2026-05-07 10:08 50.77752 -1.83466 44 ft 16 kts 358°
2026-05-07 10:09 50.77819 -1.83469 43 ft 6 kts
2026-05-07 10:09 50.77825 -1.83467 45 ft 0 kts 12°
2026-05-07 10:09 50.77838 -1.83446 44 ft 5 kts 63°
2026-05-07 10:10 50.77846 -1.83389 45 ft 2 kts 84°
2026-05-07 10:10 50.77846 -1.83383 45 ft 0 kts 85°